"Pseudo-MPEC" for P10ImWM

Created 2018 Jul 13 23:18:23 UT using Find_Orb

Click here for an explanation of pseudo-MPECs

 
 Astrometry: 
     P10ImWM  C2018 07 11WAAstrometryld7+/i:3-#g7b$C5A*20`?Vbf:s-,8yk!B_4)bAdF51
     P10ImWM  C2018 07 11dE)a4$kG4K-T[I@Pv'64(jHgXR*ZMnxrQ9,V+-D0:xlcrv:T2(Z:F51
     P10ImWM  C2018 07 11r]\Qifep4h@WNP6tMPMsnyo.S'6hvc%2nHRYfQ`,/h6K$1RU^K#7F51
     P10ImWM KC2018 07 12tek!YR8d2`l$\wdC,redacted;RY2Wjf(jC@d.e@cDL(\6:BR`i^J04
     P10ImWM |C2018 07 12d2Dpk0'6OGsj87R#X!^x]u8Y'S3pkQ(iN)d)+\Ou9(xKx0v7+hKf807
     P10ImWM |C2018 07 12A8]fj?Vlm0OW9Z:;0i.lgZDAj@3Ob8o^seePRJ@rZ2?jw)vkx`Z-807
     P10ImWM |C2018 07 12,!gPw1J0:3H/qxAsh_-F!*PRON8c[yeO3TL'gN7^-Yyu59(\:g2l807
     P10ImWM KC2018 07 13:_ZP^ERg;@AgGbo8FOEZO@oB#Q6j=]`XB@bZ?:!ZZw!\_pt`Ft@OJ04
     P10ImWM IC2018 07 13n5qqAaa^DHpfhXbMB-SDC8nxnlrC`.nX)V?AA8AdJuLwQn_NEOCPJ04

Station data:
(807) Cerro Tololo Observatory, La Serena  (S30.169136 W70.805900)  Chile.
   1.5-m Ritchey-Chrétien.
(F51) Pan-STARRS 1, Haleakala  (N20.707235 W156.255910)  US/Hawaii.
   Observers N. Primak, A. Schultz, S. Watters, J. Thiel, T. Goggia. Measurer
   PS1 Science Consortium. 1.8-m Ritchey-Chrétien + CCD.
(J04) ESA Optical Ground Station, Tenerife  (N28.300924 W16.511830)  Canary
   Islands (Spain).  Observer D. Abreu. Measurers M. Micheli, D. Koschny, E.
   Schwab, M. Busch, A. Knöfel. 1.0-m f/4.4 reflector + CCD.

Orbital elements:  P10ImWM
   Perihelion 2018 Jul 8.885564 +/- 0.129 TT = 21:15:12 (JD 2458308.385564)
Epoch 2018 Jul 13.0 TT = JDT 2458312.5   Earth MOID: 0.1304   Ma: 0.0045
M   0.97237 +/- 0.024               (J2000 ecliptic)          AutoNEOCP
n   0.23633245 +/- 0.00471          Peri.  245.97762 +/- 0.44
a   2.59091878 +/- 0.0344           Node    42.63309 +/- 0.32
e   0.5586438 +/- 0.00551           Incl.    1.76239 +/- 0.013
P   4.17                   H 24.5   G  0.15   U  9.1  
q 1.14351805 +/- 0.000938    Q 4.03831952 +/- 0.0688
From 9 observations 2018 July 11-13 (40.0 hr); mean residual 0".21
Residuals in arcseconds: 
180711 F51  .02+  .03+    180712 J04  .15-  .12+    180712 807  .45-  .08+    
180711 F51  .16-  .01-    180712 807  .22+  .03+    180713 J04  .29-  .22+    
180711 F51  .23+  .19-    180712 807  .30+  .03+    180713 J04  .31+  .31-    

Ephemerides (geocentric):
Date (UTC) HH   RA              Dec         delta   r     elong  mag " sig PA
---- -- -- --  -------------   -----------  ------ ------ -----  --- ---- ---
2018 07 13 23  21 17 08.591   -30 14 02.92  .14026 1.1451 154.9 21.6  .75  49
2018 07 14 00  21 17 21.998   -30 13 05.04  .14030 1.1452 154.9 21.6  .79  50
2018 07 14 01  21 17 35.385   -30 12 07.09  .14034 1.1452 154.9 21.6  .82  51
2018 07 14 02  21 17 48.754   -30 11 09.07  .14038 1.1452 154.9 21.6  .86  52
2018 07 14 03  21 18 02.103   -30 10 10.97  .14042 1.1453 154.9 21.6  .89  52
2018 07 14 04  21 18 15.432   -30 09 12.81  .14046 1.1453 154.9 21.6  .93  53
2018 07 14 05  21 18 28.742   -30 08 14.57  .14050 1.1453 154.9 21.6  .97  54
2018 07 14 06  21 18 42.033   -30 07 16.26  .14055 1.1453 154.9 21.6  1.0  54
2018 07 14 07  21 18 55.305   -30 06 17.87  .14059 1.1454 154.9 21.6  1.0  55
2018 07 14 08  21 19 08.557   -30 05 19.42  .14063 1.1454 154.8 21.6  1.1  55
2018 07 14 09  21 19 21.789   -30 04 20.90  .14067 1.1454 154.8 21.6  1.1  55
2018 07 14 10  21 19 35.002   -30 03 22.31  .14072 1.1454 154.8 21.6  1.2  56
2018 07 14 11  21 19 48.196   -30 02 23.65  .14076 1.1455 154.8 21.6  1.2  56
2018 07 14 12  21 20 01.370   -30 01 24.93  .14080 1.1455 154.8 21.6  1.3  57
2018 07 14 13  21 20 14.525   -30 00 26.13  .14085 1.1455 154.8 21.6  1.3  57
2018 07 14 14  21 20 27.660   -29 59 27.27  .14089 1.1456 154.8 21.6  1.4  57
2018 07 14 15  21 20 40.775   -29 58 28.34  .14094 1.1456 154.8 21.6  1.4  57
2018 07 14 16  21 20 53.871   -29 57 29.34  .14098 1.1456 154.8 21.6  1.4  58
2018 07 14 17  21 21 06.948   -29 56 30.28  .14102 1.1457 154.8 21.6  1.5  58
2018 07 14 18  21 21 20.004   -29 55 31.16  .14107 1.1457 154.8 21.6  1.5  58
2018 07 14 19  21 21 33.042   -29 54 31.97  .14111 1.1457 154.7 21.6  1.6  59
2018 07 14 20  21 21 46.059   -29 53 32.71  .14116 1.1458 154.7 21.6  1.6  59
2018 07 14 21  21 21 59.057   -29 52 33.39  .14120 1.1458 154.7 21.6  1.7  59
2018 07 14 22  21 22 12.035   -29 51 34.01  .14125 1.1458 154.7 21.6  1.7  59
2018 07 14 23  21 22 24.994   -29 50 34.57  .14129 1.1458 154.7 21.6  1.8  59
2018 07 15 00  21 22 37.933   -29 49 35.06  .14134 1.1459 154.7 21.6  1.9  59
2018 07 15 01  21 22 50.852   -29 48 35.49  .14139 1.1459 154.7 21.6  1.9  60
2018 07 15 02  21 23 03.752   -29 47 35.87  .14143 1.1459 154.7 21.6  2.0  60
2018 07 15 03  21 23 16.631   -29 46 36.18  .14148 1.1460 154.7 21.6  2.0  60
2018 07 15 04  21 23 29.492   -29 45 36.42  .14153 1.1460 154.7 21.6  2.1  60
2018 07 15 05  21 23 42.332   -29 44 36.61  .14157 1.1460 154.7 21.6  2.1  60
2018 07 15 06  21 23 55.153   -29 43 36.75  .14162 1.1461 154.6 21.6  2.2  60
2018 07 15 07  21 24 07.953   -29 42 36.82  .14167 1.1461 154.6 21.6  2.2  60
2018 07 15 08  21 24 20.734   -29 41 36.83  .14171 1.1461 154.6 21.6  2.3  61
2018 07 15 09  21 24 33.496   -29 40 36.79  .14176 1.1462 154.6 21.6  2.4  61
2018 07 15 10  21 24 46.237   -29 39 36.69  .14181 1.1462 154.6 21.6  2.4  61
2018 07 15 11  21 24 58.959   -29 38 36.53  .14186 1.1462 154.6 21.6  2.5  61
2018 07 15 12  21 25 11.661   -29 37 36.31  .14191 1.1463 154.6 21.6  2.5  61
2018 07 15 13  21 25 24.343   -29 36 36.04  .14195 1.1463 154.6 21.6  2.6  61
2018 07 15 14  21 25 37.005   -29 35 35.72  .14200 1.1463 154.6 21.6  2.7  61
2018 07 15 15  21 25 49.647   -29 34 35.34  .14205 1.1464 154.6 21.6  2.7  61
2018 07 15 16  21 26 02.270   -29 33 34.90  .14210 1.1464 154.6 21.6  2.8  61
2018 07 15 17  21 26 14.872   -29 32 34.41  .14215 1.1465 154.6 21.6  2.9  61
2018 07 15 18  21 26 27.455   -29 31 33.87  .14220 1.1465 154.5 21.6  2.9  61
2018 07 15 19  21 26 40.018   -29 30 33.28  .14225 1.1465 154.5 21.6  3.0  61
2018 07 15 20  21 26 52.561   -29 29 32.63  .14230 1.1466 154.5 21.6  3.1  62
2018 07 15 21  21 27 05.084   -29 28 31.93  .14235 1.1466 154.5 21.6  3.1  62
2018 07 15 22  21 27 17.587   -29 27 31.18  .14240 1.1466 154.5 21.6  3.2  62